Regional Weather Roundup
Issued by NWS Jackson, KY

Home | Current Version | Previous Version | Graphics & Text | Print | Product List | Glossary On
Versions: 1 2 3 4 5 6 7 8 9 10 11 12 13 14 15 16 17 18 19 20 21 22 23 24 25 26 27 28 29 30 31 32 33 34 35 36 37 38 39 40 41 42 43 44 45 46 47 48 49 50
000
ASUS43 KJKL 260610
RWRJKL

EAST KENTUCKY HOURLY WEATHER ROUNDUP
NATIONAL WEATHER SERVICE JACKSON KY
200 AM EDT THU MAR 26 2015

NOTE: "FAIR" INDICATES FEW OR NO CLOUDS BELOW 12,000 FEET WITH
NO SIGNIFICANT WEATHER AND/OR OBSTRUCTIONS TO VISIBILITY.

* THESE REPORTS ARE NOT UNDER NWS QUALITY CONTROL AND MAY NOT
  REPORT WEATHER SUCH AS PRECIPITATION AND FOG.

KYZ079-080-083-085-087-088-110-112-115-119-120-260700
...EASTERN KENTUCKY...

CITY           SKY/WX    TMP DP  RH WIND       PRES   REMARKS
JACKSON        CLOUDY    62  46  55 S5        29.96F
6HR MIN TEMP:  62; 6HR MAX TEMP:  71;

LONDON           N/A     57  48  72 SE3       29.96F
6HR MIN TEMP:  57; 6HR MAX TEMP:  71;

SOMERSET*      CLOUDY    61  48  63 S5        29.96F
MONTICELLO*      N/A     62  53  72 SW6       29.96F
6HR MIN TEMP:  56; 6HR MAX TEMP:  68;

MIDDLESBORO*   CLOUDY    53  49  84 CALM      30.00F
6HR MIN TEMP:  52; 6HR MAX TEMP:  71;

HAZARD APT*    MOCLDY    59  46  63 CALM      29.97F
BLACK MTN*       N/A     54  50  87 E3          N/A
PIKEVILLE APT* PTCLDY    63  46  55 S5        29.97F
BIG SANDY*       N/A     60  47  63 CALM      29.97S
6HR MIN TEMP:  59; 6HR MAX TEMP:  72;

MOREHEAD APT*  MOCLDY    59  50  72 VRB5      29.97F
$$

KYZ035-036-041-042-044-050-067-078-099-260700
...CENTRAL KENTUCKY...

CITY           SKY/WX    TMP DP  RH WIND       PRES   REMARKS
MT STERLING*   MOCLDY    57  50  77 SE7       29.95F
FLEMING/MASON* PTCLDY    54  48  82 E7        29.94F
DANVILLE*      CLOUDY    52  50  93 CALM      29.94F
RICHMOND*      CLOUDY    55  48  76 SE5       29.93F
LEXINGTON      MOCLDY    59  49  69 E8        29.92F
6HR MIN TEMP:  55; 6HR MAX TEMP:  68;

FRANKFORT        N/A     56  48  74 E3        29.90F
6HR MIN TEMP:  55; 6HR MAX TEMP:  69;

$$

KYZ091>093-OHZ055-061-077-WVZ005-015-034-035-042-260700
...SOUTHERN OHIO/WEST VIRGINIA...

CITY           SKY/WX    TMP DP  RH WIND       PRES   REMARKS
COVINGTON      CLOUDY    51  46  83 CALM      29.92F
COLUMBUS       CLOUDY    41  39  93 N9        29.96F
DAYTON         CLOUDY    46  43  89 N9        29.95F FOG
WILMINGTON     CLOUDY    47  44  90 NE6       29.93F
HUNTINGTON     CLOUDY    59  49  69 E5        29.96F
CHARLESTON       N/A     55  46  71 CALM      29.95F
PINEVILLE*       N/A     54  51  90 MISG      30.04F
BECKLEY        MOCLDY    55  47  74 SE8       30.03F
BLUEFIELD      MOCLDY    59  49  69 S16G23    30.07F
$$

VAZ002-007-008-TNZ017-027-036-066-071-260700
...SOUTHWEST VIRGINIA/EAST TENNESSEE...

CITY           SKY/WX    TMP DP  RH WIND       PRES   REMARKS
WISE*            N/A     59  50  72 S13G18    30.04F
JONESVILLE*    MOCLDY    59  54  82 CALM      30.02F
ABINGDON*      CLOUDY    59  52  78 E3        30.04F
BRISTOL          N/A     61  52  72 SE3       30.03F
KNOXVILLE      MOCLDY    63  53  70 SW10      30.00S
OAK RIDGE      CLOUDY    67  55  65 SW3       30.01S
CROSSVILLE     CLOUDY    63  55  75 S8        30.02F
NASHVILLE      CLOUDY    60  53  77 SE3       29.93F
$$

...KEY TO REMARKS...
VSB - VISIBILITY IN MILES
WCI - WIND CHILL INDEX
HX  - HEAT INDEX

$$



USA.gov is the U.S. government's official web portal to all federal, state and local government web resources and services.